Home > Weather > Eureka > Past weeks

Flag for Canada Weather for the Past 2 Weeks in Eureka, Nunavut, Canada

Now
1 °F

Sunny.


Feels Like: 1 °F
Forecast: -2 / 13 °F
Wind: No wind

Location: Eureka

Current Time: May 3, 2016 at 9:26:02 PM

Latest Report: May 3, 2016 at 9:00 PM


Visibility: 15 mi

Pressure: 30.17 "Hg

Humidity: 85%

Dew Point: -2 °F

Location of EurekaLocation

Historic Weather in Eureka — Graph

°F

Eureka Temperature Yesterday

Maximum temperature yesterday: 9 °F (at 2:00 AM)
Minimum temperature yesterday: 1 °F (at 10:00 PM)
Average temperature yesterday: 5 °F

High & Low Weather Summary for the Past Weeks

 TemperatureHumidityPressure
High12 °F (May 1, 1:00 PM)85% (Apr 26, 6:00 PM)30.59 "Hg (Apr 26, 6:00 PM)
Low-24 °F (Apr 19, 5:46 AM)61% (May 2, 4:00 AM)30.07 "Hg (May 2, 1:00 AM)
Average-7 °F76%30.33 "Hg
* Reported Apr 18 8:00 PM — May 3 8:00 PM, Eureka, Weather by CustomWeather, © 2016

Note: Actual official high and low records may vary slightly from our data, if they occured in-between our weather recording intervals... More about our weather records

Advertising

Eureka Weather History for the Previous 24 Hours

Scroll right to see more
 ConditionsComfort  
Time TempWeatherWind HumidityBarometerVisibility
8:00 PM
Tue, May 3
3 °FSunny.No wind78%30.18 "Hg15 mi
7:00 PM5 °FSunny.No wind78%30.18 "Hg15 mi
6:00 PM5 °FSunny.No wind78%30.18 "Hg15 mi
5:00 PM5 °FSunny.No wind78%30.19 "Hg15 mi
4:00 PM5 °FSunny.No wind78%30.18 "Hg15 mi
3:00 PM5 °FSunny.No wind72%30.18 "Hg15 mi
2:00 PM5 °FSunny.No wind72%30.19 "Hg15 mi
1:00 PM3 °FSunny.No wind78%30.19 "Hg15 mi
12:00 PM1 °FSunny.3 mph78%30.19 "Hg15 mi
11:00 AM1 °FSunny.5 mph78%30.19 "Hg15 mi
10:00 AM1 °FSunny.2 mph78%30.19 "Hg15 mi
9:00 AM0 °FSunny.3 mph78%30.20 "Hg15 mi
8:00 AM-2 °FSunny.2 mph84%30.19 "Hg15 mi
7:00 AM-2 °FSunny.3 mph84%30.19 "Hg15 mi
6:00 AM-2 °FSunny.5 mph77%30.19 "Hg15 mi
5:00 AM-2 °FSunny.2 mph84%30.18 "Hg15 mi
4:00 AM-2 °FSunny.2 mph84%30.18 "Hg15 mi
3:00 AM-4 °FSunny.5 mph84%30.17 "Hg15 mi
2:00 AM-2 °FSunny.3 mph84%30.16 "Hg15 mi
1:00 AM-2 °FSunny.3 mph84%30.16 "Hg15 mi
10:00 PM
Mon, May 2
1 °FSunny.3 mph85%30.14 "Hg15 mi
9:00 PM3 °FSunny.2 mph72%30.14 "Hg15 mi
Weather by CustomWeather, © 2016

See weather overviewHow to use our weather pages